Dupage Airport Chicago,West Chicago US
ICAO: KDPA
IATA: DPA
Category: Medium
Scheduled Services: No

Elevation: 759 ft
TransAlt. 18000 ft.

Airport Communications:
CHICAGO APP/DEP:133.5
ASOS:124.8
ATIS:124.8
CLNC DEL:119.75
GND:121.8
KANKAKEE RDO:122.3
TWR:120.9
UNICOM:122.95

KDPA Zoom In..

If you have problems with the map follow the link
https://www.worldairports.se/pages/airport.php?
ICAO=KDPA

Runways:

(A) RW 02L length 7571 ft width 100 ft
ILS 111.70 / hdg 15

(B) RW 02R length 6443 ft width 100 ft
---- / hdg 15

(C) RW 10 length 4750 ft width 75 ft
ILS 109.50 / hdg 97

(D) RW 15 length 3399 ft width 100 ft
---- / hdg 149

(E) RW 20L length 6443 ft width 100 ft
---- / hdg 195

(F) RW 20R length 7571 ft width 100 ft
---- / hdg 195

(G) RW 28 length 4750 ft width 75 ft
---- / hdg 277

(H) RW 33 length 3399 ft width 100 ft
---- / hdg 329

Location; KDPA
Day. 17 / Time. 01.52 Zulu
* Altimeter: 30.07
* Temperature: 01° c. 33.8°f.
* Wind from: 260° Speed 06 kn.
Dewpoint: -02° c.
Visibility: 7 Statute Miles.
Clouds: Overcast 1700 ft.

KDPA 170152Z 26006KT 7SM OVC017 01/M02 A3007 RMK AO2 SLP191 T00061022


Wind From 260°
Speed 06 kn.

 
 
jpsmedia.com for Web Design worldairports.se 2018   terms of use